Location: Ellerstadt
(49.4644°N, 8.2615°E)
Time: 02:07:10
(UTC+00:00)

NOSS 3-3 (A) - Pass Details

Date: 03 March 2021
Orbit: 815 x 1397 km, 63.4° (Epoch: 15 April)

Event Time Altitude Azimuth Distance (km) Brightness Sun altitude
Rises 20:07:37 0° 317° (NW) 3,925 8.2 -28.5°
Reaches altitude 10° 20:10:09 10° 317° (NW) 3,043 7.4 -28.8°
Maximum altitude 20:17:35 89° 233° (SW) 1,267 4.4 -29.9°
Enters shadow 20:18:47 69° 143° (SE) 1,359 4.4 -30.1°
